Time,TemperatureF,DewpointF,PressureIn,WindDirection,WindDirectionDegrees,WindSpeedMPH,WindSpeedGustMPH,Humidity,HourlyPrecipIn,Conditions,Clouds,dailyrainin,SoftwareType,DateUTC
2013-03-20 00:01:00,13.7,6.1,30.42,NW,305,7.0,15.0,71,0.00,,,0.00,WeatherCatV1.10B1784,2013-03-20 05:01:00,
2013-03-20 00:06:00,13.4,6.1,30.42,NNE,16,6.0,12.0,72,0.00,,,0.00,WeatherCatV1.10B1784,2013-03-20 05:06:00,
2013-03-20 00:11:00,13.2,6.2,30.42,NNE,18,6.0,6.0,73,0.00,,,0.00,WeatherCatV1.10B1784,2013-03-20 05:11:00,
2013-03-20 00:16:00,13.1,6.4,30.42,NNW,343,3.0,8.0,74,0.00,,,0.00,WeatherCatV1.10B1784,2013-03-20 05:16:00,
2013-03-20 00:21:00,13.0,6.3,30.42,NW,305,5.0,9.0,74,0.00,,,0.00,WeatherCatV1.10B1784,2013-03-20 05:21:00,
2013-03-20 00:26:00,12.9,6.5,30.42,NW,304,5.0,9.0,75,0.00,,,0.00,WeatherCatV1.10B1784,2013-03-20 05:26:00,
2013-03-20 00:31:00,12.8,5.8,30.42,West,278,2.0,7.0,73,0.00,,,0.00,WeatherCatV1.10B1784,2013-03-20 05:31:00,
2013-03-20 00:36:00,12.8,5.8,30.42,North,356,11.0,12.0,73,0.00,,,0.00,WeatherCatV1.10B1784,2013-03-20 05:36:00,
2013-03-20 00:41:00,12.7,5.7,30.42,NW,319,10.0,10.0,73,0.00,,,0.00,WeatherCatV1.10B1784,2013-03-20 05:41:00,
2013-03-20 00:46:00,12.6,5.6,30.43,NW,322,8.0,9.0,73,0.00,,,0.00,WeatherCatV1.10B1784,2013-03-20 05:46:00,
2013-03-20 00:51:00,12.5,5.5,30.43,NNW,335,3.0,7.0,73,0.00,,,0.00,WeatherCatV1.10B1784,2013-03-20 05:51:00,
2013-03-20 00:56:00,12.3,5.6,30.43,NW,313,2.0,8.0,74,0.00,,,0.00,WeatherCatV1.10B1784,2013-03-20 05:56:00,
2013-03-20 01:01:00,12.3,5.9,30.43,West,281,4.0,4.0,75,0.00,,,0.00,WeatherCatV1.10B1784,2013-03-20 06:01:00,
2013-03-20 01:06:00,12.2,5.8,30.43,NW,307,3.0,7.0,75,0.00,,,0.00,WeatherCatV1.10B1784,2013-03-20 06:06:00,
2013-03-20 01:11:00,12.1,5.4,30.43,NNW,335,5.0,6.0,74,0.00,,,0.00,WeatherCatV1.10B1784,2013-03-20 06:11:00,
2013-03-20 01:16:00,12.1,5.4,30.43,WNW,302,5.0,9.0,74,0.00,,,0.00,WeatherCatV1.10B1784,2013-03-20 06:16:00,
2013-03-20 01:21:00,12.0,5.6,30.43,WNW,293,3.0,10.0,75,0.00,,,0.00,WeatherCatV1.10B1784,2013-03-20 06:21:00,
2013-03-20 01:26:00,12.0,5.3,30.43,NNW,334,9.0,10.0,74,0.00,,,0.00,WeatherCatV1.10B1784,2013-03-20 06:26:00,
2013-03-20 01:31:00,11.9,5.5,30.43,NW,320,5.0,6.0,75,0.00,,,0.00,WeatherCatV1.10B1784,2013-03-20 06:31:00,
2013-03-20 01:36:00,11.9,5.8,30.43,NW,323,4.0,7.0,76,0.00,,,0.00,WeatherCatV1.10B1784,2013-03-20 06:36:00,
2013-03-20 01:41:00,11.8,5.7,30.43,NNW,348,3.0,10.0,76,0.00,,,0.00,WeatherCatV1.10B1784,2013-03-20 06:41:00,
2013-03-20 01:46:00,11.7,5.6,30.43,NNW,327,9.0,11.0,76,0.00,,,0.00,WeatherCatV1.10B1784,2013-03-20 06:46:00,
2013-03-20 01:51:00,11.7,5.6,30.43,West,270,7.0,9.0,76,0.00,,,0.00,WeatherCatV1.10B1784,2013-03-20 06:51:00,
2013-03-20 01:56:00,11.6,5.5,30.43,WNW,295,3.0,11.0,76,0.00,,,0.00,WeatherCatV1.10B1784,2013-03-20 06:56:00,
2013-03-20 02:01:00,11.5,5.7,30.43,NW,313,1.0,9.0,77,0.00,,,0.00,WeatherCatV1.10B1784,2013-03-20 07:01:00,
2013-03-20 02:06:00,11.5,5.7,30.44,NW,326,6.0,8.0,77,0.00,,,0.00,WeatherCatV1.10B1784,2013-03-20 07:06:00,
2013-03-20 02:11:00,11.4,5.9,30.44,WNW,301,1.0,5.0,78,0.00,,,0.00,WeatherCatV1.10B1784,2013-03-20 07:11:00,
2013-03-20 02:16:00,11.3,5.8,30.44,NNW,327,5.0,7.0,78,0.00,,,0.00,WeatherCatV1.10B1784,2013-03-20 07:16:00,
2013-03-20 02:21:00,11.3,5.8,30.44,NW,305,2.0,5.0,78,0.00,,,0.00,WeatherCatV1.10B1784,2013-03-20 07:21:00,
2013-03-20 02:26:00,11.2,5.7,30.44,West,271,1.0,6.0,78,0.00,,,0.00,WeatherCatV1.10B1784,2013-03-20 07:26:00,
2013-03-20 02:31:00,11.2,5.7,30.44,NW,315,2.0,8.0,78,0.00,,,0.00,WeatherCatV1.10B1784,2013-03-20 07:31:00,
2013-03-20 02:36:00,11.1,5.9,30.44,West,276,3.0,9.0,79,0.00,,,0.00,WeatherCatV1.10B1784,2013-03-20 07:36:00,
2013-03-20 02:41:00,11.0,5.8,30.44,WNW,292,3.0,8.0,79,0.00,,,0.00,WeatherCatV1.10B1784,2013-03-20 07:41:00,
2013-03-20 02:46:00,11.0,5.8,30.44,NW,308,7.0,9.0,79,0.00,,,0.00,WeatherCatV1.10B1784,2013-03-20 07:46:00,
2013-03-20 02:51:00,11.0,5.8,30.44,NW,314,9.0,10.0,79,0.00,,,0.00,WeatherCatV1.10B1784,2013-03-20 07:51:00,
2013-03-20 02:56:00,10.9,5.7,30.44,West,268,2.0,9.0,79,0.00,,,0.00,WeatherCatV1.10B1784,2013-03-20 07:56:00,
2013-03-20 03:01:00,10.8,5.6,30.44,WNW,296,4.0,7.0,79,0.00,,,0.00,WeatherCatV1.10B1784,2013-03-20 08:01:00,
2013-03-20 03:06:00,10.7,5.5,30.44,NW,319,4.0,8.0,79,0.00,,,0.00,WeatherCatV1.10B1784,2013-03-20 08:06:00,
2013-03-20 03:11:00,10.7,5.5,30.44,WNW,285,4.0,5.0,79,0.00,,,0.00,WeatherCatV1.10B1784,2013-03-20 08:11:00,
2013-03-20 03:16:00,10.7,5.5,30.44,NW,306,4.0,7.0,79,0.00,,,0.00,WeatherCatV1.10B1784,2013-03-20 08:16:00,
2013-03-20 03:21:00,10.6,5.4,30.44,WNW,291,2.0,8.0,79,0.00,,,0.00,WeatherCatV1.10B1784,2013-03-20 08:21:00,
2013-03-20 03:26:00,10.5,5.3,30.44,West,280,2.0,8.0,79,0.00,,,0.00,WeatherCatV1.10B1784,2013-03-20 08:26:00,
2013-03-20 03:31:00,10.4,5.2,30.43,WNW,295,1.0,5.0,79,0.00,,,0.00,WeatherCatV1.10B1784,2013-03-20 08:31:00,
2013-03-20 03:36:00,10.3,5.4,30.44,NW,314,3.0,8.0,80,0.00,,,0.00,WeatherCatV1.10B1784,2013-03-20 08:36:00,
2013-03-20 03:41:00,10.3,5.4,30.44,WNW,295,0.0,7.0,80,0.00,,,0.00,WeatherCatV1.10B1784,2013-03-20 08:41:00,
2013-03-20 03:46:00,10.3,5.1,30.44,WNW,282,3.0,4.0,79,0.00,,,0.00,WeatherCatV1.10B1784,2013-03-20 08:46:00,
2013-03-20 03:51:00,10.2,5.0,30.44,WNW,302,2.0,5.0,79,0.00,,,0.00,WeatherCatV1.10B1784,2013-03-20 08:51:00,
2013-03-20 03:56:00,10.2,5.0,30.44,NW,318,3.0,6.0,79,0.00,,,0.00,WeatherCatV1.10B1784,2013-03-20 08:56:00,
2013-03-20 04:01:00,10.1,4.9,30.44,NNW,328,5.0,6.0,79,0.00,,,0.00,WeatherCatV1.10B1784,2013-03-20 09:01:00,
2013-03-20 04:06:00,10.1,5.2,30.44,WNW,282,1.0,5.0,80,0.00,,,0.00,WeatherCatV1.10B1784,2013-03-20 09:06:00,
2013-03-20 04:11:00,10.0,5.1,30.44,WNW,287,5.0,6.0,80,0.00,,,0.00,WeatherCatV1.10B1784,2013-03-20 09:11:00,
2013-03-20 04:16:00,9.9,5.0,30.44,NW,317,3.0,4.0,80,0.00,,,0.00,WeatherCatV1.10B1784,2013-03-20 09:16:00,
2013-03-20 04:21:00,9.8,4.9,30.44,WNW,287,4.0,6.0,80,0.00,,,0.00,WeatherCatV1.10B1784,2013-03-20 09:21:00,
2013-03-20 04:26:00,9.8,4.9,30.44,NW,307,1.0,8.0,80,0.00,,,0.00,WeatherCatV1.10B1784,2013-03-20 09:26:00,
2013-03-20 04:31:00,9.7,4.8,30.44,NW,318,2.0,6.0,80,0.00,,,0.00,WeatherCatV1.10B1784,2013-03-20 09:31:00,
2013-03-20 04:36:00,9.7,4.8,30.44,WNW,282,3.0,4.0,80,0.00,,,0.00,WeatherCatV1.10B1784,2013-03-20 09:36:00,
2013-03-20 04:41:00,9.6,5.0,30.44,West,274,2.0,6.0,81,0.00,,,0.00,WeatherCatV1.10B1784,2013-03-20 09:41:00,
2013-03-20 04:46:00,9.6,5.0,30.44,WNW,301,3.0,5.0,81,0.00,,,0.00,WeatherCatV1.10B1784,2013-03-20 09:46:00,
2013-03-20 04:51:00,9.5,4.9,30.44,West,272,2.0,3.0,81,0.00,,,0.00,WeatherCatV1.10B1784,2013-03-20 09:51:00,
2013-03-20 04:56:00,9.4,4.8,30.44,NW,307,2.0,5.0,81,0.00,,,0.00,WeatherCatV1.10B1784,2013-03-20 09:56:00,
2013-03-20 05:01:00,9.3,4.7,30.44,WNW,299,0.0,5.0,81,0.00,,,0.00,WeatherCatV1.10B1784,2013-03-20 10:01:00,
2013-03-20 05:06:00,9.3,4.7,30.44,WNW,290,3.0,3.0,81,0.00,,,0.00,WeatherCatV1.10B1784,2013-03-20 10:06:00,
2013-03-20 05:11:00,9.3,4.9,30.44,WNW,282,1.0,4.0,82,0.00,,,0.00,WeatherCatV1.10B1784,2013-03-20 10:11:00,
2013-03-20 05:16:00,9.3,4.9,30.44,NW,314,4.0,7.0,82,0.00,,,0.00,WeatherCatV1.10B1784,2013-03-20 10:16:00,
2013-03-20 05:21:00,9.4,5.0,30.44,WNW,288,3.0,6.0,82,0.00,,,0.00,WeatherCatV1.10B1784,2013-03-20 10:21:00,
2013-03-20 05:26:00,9.4,5.0,30.44,WNW,285,3.0,6.0,82,0.00,,,0.00,WeatherCatV1.10B1784,2013-03-20 10:26:00,
2013-03-20 05:31:00,9.4,4.8,30.44,West,268,2.0,4.0,81,0.00,,,0.00,WeatherCatV1.10B1784,2013-03-20 10:31:00,
2013-03-20 05:36:00,9.3,4.9,30.44,West,266,2.0,4.0,82,0.00,,,0.00,WeatherCatV1.10B1784,2013-03-20 10:36:00,
2013-03-20 05:41:00,9.3,4.9,30.44,West,266,3.0,7.0,82,0.00,,,0.00,WeatherCatV1.10B1784,2013-03-20 10:41:00,
2013-03-20 05:46:00,9.2,4.8,30.44,North,353,0.0,5.0,82,0.00,,,0.00,WeatherCatV1.10B1784,2013-03-20 10:46:00,
2013-03-20 05:51:00,9.2,4.8,30.44,West,271,3.0,6.0,82,0.00,,,0.00,WeatherCatV1.10B1784,2013-03-20 10:51:00,
2013-03-20 05:56:00,9.1,4.7,30.44,WNW,284,4.0,5.0,82,0.00,,,0.00,WeatherCatV1.10B1784,2013-03-20 10:56:00,
2013-03-20 06:01:00,9.1,4.5,30.44,West,280,3.0,6.0,81,0.00,,,0.00,WeatherCatV1.10B1784,2013-03-20 11:01:00,
2013-03-20 06:06:00,9.2,4.6,30.44,WNW,283,1.0,5.0,81,0.00,,,0.00,WeatherCatV1.10B1784,2013-03-20 11:06:00,
2013-03-20 06:11:00,9.1,4.5,30.44,WNW,286,2.0,5.0,81,0.00,,,0.00,WeatherCatV1.10B1784,2013-03-20 11:11:00,
2013-03-20 06:16:00,9.0,4.6,30.44,NW,320,1.0,4.0,82,0.00,,,0.00,WeatherCatV1.10B1784,2013-03-20 11:16:00,
2013-03-20 06:21:00,8.9,4.5,30.44,West,274,1.0,3.0,82,0.00,,,0.00,WeatherCatV1.10B1784,2013-03-20 11:21:00,
2013-03-20 06:26:00,8.9,4.5,30.45,WNW,282,6.0,7.0,82,0.00,,,0.00,WeatherCatV1.10B1784,2013-03-20 11:26:00,
2013-03-20 06:31:00,8.8,4.4,30.45,WNW,298,5.0,6.0,82,0.00,,,0.00,WeatherCatV1.10B1784,2013-03-20 11:31:00,
2013-03-20 06:36:00,8.7,4.4,30.44,West,277,2.0,4.0,82,0.00,,,0.00,WeatherCatV1.10B1784,2013-03-20 11:36:00,
2013-03-20 06:41:00,8.7,4.4,30.44,WNW,293,2.0,4.0,82,0.00,,,0.00,WeatherCatV1.10B1784,2013-03-20 11:41:00,
2013-03-20 06:46:00,8.6,4.3,30.44,WNW,290,1.0,5.0,82,0.00,,,0.00,WeatherCatV1.10B1784,2013-03-20 11:46:00,
2013-03-20 06:51:00,8.5,4.2,30.44,NW,304,3.0,4.0,82,0.00,,,0.00,WeatherCatV1.10B1784,2013-03-20 11:51:00,
2013-03-20 06:56:00,8.5,4.2,30.44,WNW,300,0.0,7.0,82,0.00,,,0.00,WeatherCatV1.10B1784,2013-03-20 11:56:00,
2013-03-20 07:01:00,8.4,4.1,30.44,West,275,2.0,4.0,82,0.00,,,0.00,WeatherCatV1.10B1784,2013-03-20 12:01:00,
2013-03-20 07:06:00,8.3,4.0,30.44,WNW,288,0.0,6.0,82,0.00,,,0.00,WeatherCatV1.10B1784,2013-03-20 12:06:00,
2013-03-20 07:11:00,8.3,4.0,30.44,WSW,249,1.0,4.0,82,0.00,,,0.00,WeatherCatV1.10B1784,2013-03-20 12:11:00,
2013-03-20 07:16:00,8.2,3.9,30.44,WNW,282,3.0,4.0,82,0.00,,,0.00,WeatherCatV1.10B1784,2013-03-20 12:16:00,
2013-03-20 07:21:00,8.1,3.8,30.44,WNW,282,1.0,2.0,82,0.00,,,0.00,WeatherCatV1.10B1784,2013-03-20 12:21:00,
2013-03-20 07:26:00,8.1,3.8,30.44,WNW,284,0.0,4.0,82,0.00,,,0.00,WeatherCatV1.10B1784,2013-03-20 12:26:00,
2013-03-20 07:31:00,8.0,3.7,30.44,WNW,285,1.0,3.0,82,0.00,,,0.00,WeatherCatV1.10B1784,2013-03-20 12:31:00,
2013-03-20 07:36:00,8.0,3.7,30.44,West,278,1.0,4.0,82,0.00,,,0.00,WeatherCatV1.10B1784,2013-03-20 12:36:00,
2013-03-20 07:41:00,8.0,3.7,30.44,West,277,1.0,4.0,82,0.00,,,0.00,WeatherCatV1.10B1784,2013-03-20 12:41:00,
2013-03-20 07:46:00,8.0,3.7,30.44,West,266,0.0,4.0,82,0.00,,,0.00,WeatherCatV1.10B1784,2013-03-20 12:46:00,
2013-03-20 07:51:00,8.0,3.7,30.44,WNW,288,0.0,5.0,82,0.00,,,0.00,WeatherCatV1.10B1784,2013-03-20 12:51:00,
2013-03-20 07:56:00,8.1,3.8,30.44,NW,317,1.0,3.0,82,0.00,,,0.00,WeatherCatV1.10B1784,2013-03-20 12:56:00,
2013-03-20 08:01:00,8.2,3.9,30.44,West,280,0.0,3.0,82,0.00,,,0.00,WeatherCatV1.10B1784,2013-03-20 13:01:00,
2013-03-20 08:06:00,8.4,4.1,30.44,WNW,287,3.0,4.0,82,0.00,,,0.00,WeatherCatV1.10B1784,2013-03-20 13:06:00,
2013-03-20 08:11:00,8.5,3.9,30.44,WNW,300,1.0,4.0,81,0.00,,,0.00,WeatherCatV1.10B1784,2013-03-20 13:11:00,
2013-03-20 08:16:00,8.7,4.1,30.44,WNW,292,2.0,4.0,81,0.00,,,0.00,WeatherCatV1.10B1784,2013-03-20 13:16:00,
2013-03-20 08:21:00,8.9,4.3,30.43,WNW,303,0.0,4.0,81,0.00,,,0.00,WeatherCatV1.10B1784,2013-03-20 13:21:00,
2013-03-20 08:26:00,9.1,4.2,30.43,NW,325,4.0,7.0,80,0.00,,,0.00,WeatherCatV1.10B1784,2013-03-20 13:26:00,
2013-03-20 08:31:00,9.2,4.3,30.43,NW,320,1.0,6.0,80,0.00,,,0.00,WeatherCatV1.10B1784,2013-03-20 13:31:00,
2013-03-20 08:36:00,9.5,4.6,30.43,WNW,298,0.0,3.0,80,0.00,,,0.00,WeatherCatV1.10B1784,2013-03-20 13:36:00,
2013-03-20 08:41:00,9.7,4.5,30.43,NW,321,4.0,4.0,79,0.00,,,0.00,WeatherCatV1.10B1784,2013-03-20 13:41:00,
2013-03-20 08:46:00,9.9,4.4,30.43,NNW,331,2.0,4.0,78,0.00,,,0.00,WeatherCatV1.10B1784,2013-03-20 13:46:00,
2013-03-20 08:51:00,10.2,4.7,30.43,NNW,328,5.0,6.0,78,0.00,,,0.00,WeatherCatV1.10B1784,2013-03-20 13:51:00,
2013-03-20 08:56:00,10.5,4.7,30.43,NNW,329,5.0,7.0,77,0.00,,,0.00,WeatherCatV1.10B1784,2013-03-20 13:56:00,
2013-03-20 09:01:00,10.8,5.0,30.43,NNW,342,6.0,7.0,77,0.00,,,0.00,WeatherCatV1.10B1784,2013-03-20 14:01:00,
2013-03-20 09:06:00,11.0,4.9,30.43,NW,314,1.0,6.0,76,0.00,,,0.00,WeatherCatV1.10B1784,2013-03-20 14:06:00,
2013-03-20 09:11:00,11.2,5.1,30.43,West,272,8.0,8.0,76,0.00,,,0.00,WeatherCatV1.10B1784,2013-03-20 14:11:00,
2013-03-20 09:16:00,11.5,5.4,30.43,WNW,298,2.0,4.0,76,0.00,,,0.00,WeatherCatV1.10B1784,2013-03-20 14:16:00,
2013-03-20 09:21:00,12.0,5.6,30.43,North,0,2.0,8.0,75,0.00,,,0.00,WeatherCatV1.10B1784,2013-03-20 14:21:00,
2013-03-20 09:26:00,12.3,5.3,30.43,West,274,4.0,8.0,73,0.00,,,0.00,WeatherCatV1.10B1784,2013-03-20 14:26:00,
2013-03-20 09:31:00,13.0,6.3,30.43,NNW,330,6.0,6.0,74,0.00,,,0.00,WeatherCatV1.10B1784,2013-03-20 14:31:00,
2013-03-20 09:36:00,13.2,5.9,30.43,NW,310,4.0,11.0,72,0.00,,,0.00,WeatherCatV1.10B1784,2013-03-20 14:36:00,
2013-03-20 09:41:00,13.4,6.1,30.43,NW,313,6.0,8.0,72,0.00,,,0.00,WeatherCatV1.10B1784,2013-03-20 14:41:00,
2013-03-20 09:46:00,13.6,6.0,30.43,WNW,289,5.0,7.0,71,0.00,,,0.00,WeatherCatV1.10B1784,2013-03-20 14:46:00,
2013-03-20 09:51:00,13.9,6.0,30.42,WNW,295,4.0,9.0,70,0.00,,,0.00,WeatherCatV1.10B1784,2013-03-20 14:51:00,
2013-03-20 09:56:00,14.1,6.1,30.42,West,278,8.0,9.0,70,0.00,,,0.00,WeatherCatV1.10B1784,2013-03-20 14:56:00,
2013-03-20 10:01:00,14.5,6.2,30.42,NW,322,4.0,9.0,69,0.00,,,0.00,WeatherCatV1.10B1784,2013-03-20 15:01:00,
2013-03-20 10:06:00,14.8,6.5,30.42,North,349,3.0,9.0,69,0.00,,,0.00,WeatherCatV1.10B1784,2013-03-20 15:06:00,
2013-03-20 10:11:00,15.2,6.6,30.42,NW,307,6.0,10.0,68,0.00,,,0.00,WeatherCatV1.10B1784,2013-03-20 15:11:00,
2013-03-20 10:16:00,15.4,6.4,30.42,NE,39,5.0,9.0,67,0.00,,,0.00,WeatherCatV1.10B1784,2013-03-20 15:16:00,
2013-03-20 10:21:00,15.7,6.4,30.42,NW,317,6.0,8.0,66,0.00,,,0.00,WeatherCatV1.10B1784,2013-03-20 15:21:00,
2013-03-20 10:26:00,16.2,6.9,30.42,NNW,328,4.0,7.0,66,0.00,,,0.00,WeatherCatV1.10B1784,2013-03-20 15:26:00,
2013-03-20 10:31:00,16.5,6.8,30.42,WNW,283,5.0,12.0,65,0.00,,,0.00,WeatherCatV1.10B1784,2013-03-20 15:31:00,
2013-03-20 10:36:00,16.8,6.8,30.42,West,274,6.0,11.0,64,0.00,,,0.00,WeatherCatV1.10B1784,2013-03-20 15:36:00,
2013-03-20 10:41:00,16.7,6.7,30.42,West,274,5.0,10.0,64,0.00,,,0.00,WeatherCatV1.10B1784,2013-03-20 15:41:00,
2013-03-20 10:46:00,17.0,7.0,30.42,West,260,6.0,7.0,64,0.00,,,0.00,WeatherCatV1.10B1784,2013-03-20 15:46:00,
2013-03-20 10:51:00,17.3,7.2,30.42,North,10,6.0,7.0,64,0.00,,,0.00,WeatherCatV1.10B1784,2013-03-20 15:51:00,
2013-03-20 10:56:00,17.8,7.7,30.42,NNW,344,5.0,8.0,64,0.00,,,0.00,WeatherCatV1.10B1784,2013-03-20 15:56:00,
2013-03-20 11:01:00,18.1,7.3,30.42,NW,326,5.0,6.0,62,0.00,,,0.00,WeatherCatV1.10B1784,2013-03-20 16:01:00,
2013-03-20 11:06:00,18.5,7.7,30.42,NNW,338,2.0,7.0,62,0.00,,,0.00,WeatherCatV1.10B1784,2013-03-20 16:06:00,
2013-03-20 11:11:00,18.3,7.1,30.42,NNW,345,8.0,8.0,61,0.00,,,0.00,WeatherCatV1.10B1784,2013-03-20 16:11:00,
2013-03-20 11:16:00,18.6,7.8,30.41,NNW,346,5.0,8.0,62,0.00,,,0.00,WeatherCatV1.10B1784,2013-03-20 16:16:00,
2013-03-20 11:21:00,18.3,6.4,30.41,WNW,295,2.0,12.0,59,0.00,,,0.00,WeatherCatV1.10B1784,2013-03-20 16:21:00,
2013-03-20 11:26:00,18.6,6.7,30.41,NNW,336,2.0,9.0,59,0.00,,,0.00,WeatherCatV1.10B1784,2013-03-20 16:26:00,
2013-03-20 11:31:00,18.8,6.9,30.41,West,272,3.0,7.0,59,0.00,,,0.00,WeatherCatV1.10B1784,2013-03-20 16:31:00,
2013-03-20 11:36:00,19.4,8.2,30.41,NW,307,2.0,7.0,61,0.00,,,0.00,WeatherCatV1.10B1784,2013-03-20 16:36:00,
2013-03-20 11:41:00,19.5,6.8,30.41,NW,309,5.0,9.0,57,0.00,,,0.00,WeatherCatV1.10B1784,2013-03-20 16:41:00,
2013-03-20 11:46:00,19.4,7.4,30.40,NW,314,4.0,9.0,59,0.00,,,0.00,WeatherCatV1.10B1784,2013-03-20 16:46:00,
2013-03-20 11:51:00,19.9,8.3,30.40,NW,313,2.0,10.0,60,0.00,,,0.00,WeatherCatV1.10B1784,2013-03-20 16:51:00,
2013-03-20 11:56:00,20.2,8.2,30.40,WNW,293,5.0,6.0,59,0.00,,,0.00,WeatherCatV1.10B1784,2013-03-20 16:56:00,
2013-03-20 12:01:00,20.3,9.0,30.40,NNE,15,1.0,7.0,61,0.00,,,0.00,WeatherCatV1.10B1784,2013-03-20 17:01:00,
2013-03-20 12:06:00,20.9,8.5,30.39,NW,312,10.0,10.0,58,0.00,,,0.00,WeatherCatV1.10B1784,2013-03-20 17:06:00,
2013-03-20 12:11:00,20.9,8.5,30.39,WNW,301,3.0,8.0,58,0.00,,,0.00,WeatherCatV1.10B1784,2013-03-20 17:11:00,
2013-03-20 12:16:00,20.8,7.6,30.39,NW,308,2.0,11.0,56,0.00,,,0.00,WeatherCatV1.10B1784,2013-03-20 17:16:00,
2013-03-20 12:21:00,21.4,8.6,30.39,West,266,6.0,9.0,57,0.00,,,0.00,WeatherCatV1.10B1784,2013-03-20 17:21:00,
2013-03-20 12:26:00,21.2,8.0,30.39,WNW,290,6.0,6.0,56,0.00,,,0.00,WeatherCatV1.10B1784,2013-03-20 17:26:00,
2013-03-20 12:31:00,21.6,8.4,30.39,West,281,5.0,9.0,56,0.00,,,0.00,WeatherCatV1.10B1784,2013-03-20 17:31:00,
2013-03-20 12:36:00,22.2,9.3,30.39,West,281,3.0,5.0,57,0.00,,,0.00,WeatherCatV1.10B1784,2013-03-20 17:36:00,
2013-03-20 12:41:00,22.1,8.4,30.39,NW,316,4.0,5.0,55,0.00,,,0.00,WeatherCatV1.10B1784,2013-03-20 17:41:00,
2013-03-20 12:46:00,21.8,7.7,30.39,WNW,302,2.0,7.0,54,0.00,,,0.00,WeatherCatV1.10B1784,2013-03-20 17:46:00,
2013-03-20 12:51:00,22.1,8.4,30.39,NW,318,2.0,9.0,55,0.00,,,0.00,WeatherCatV1.10B1784,2013-03-20 17:51:00,
2013-03-20 12:56:00,22.1,8.8,30.38,NW,317,6.0,10.0,56,0.00,,,0.00,WeatherCatV1.10B1784,2013-03-20 17:56:00,
2013-03-20 13:01:00,21.8,7.7,30.38,NW,325,11.0,12.0,54,0.00,,,0.00,WeatherCatV1.10B1784,2013-03-20 18:01:00,
2013-03-20 13:06:00,21.6,8.0,30.38,WSW,256,6.0,7.0,55,0.00,,,0.00,WeatherCatV1.10B1784,2013-03-20 18:06:00,
2013-03-20 13:11:00,22.2,9.7,30.38,NW,312,7.0,8.0,58,0.00,,,0.00,WeatherCatV1.10B1784,2013-03-20 18:11:00,
2013-03-20 13:16:00,22.5,8.8,30.37,NW,305,5.0,5.0,55,0.00,,,0.00,WeatherCatV1.10B1784,2013-03-20 18:16:00,
2013-03-20 13:21:00,22.8,8.7,30.37,NNW,348,7.0,10.0,54,0.00,,,0.00,WeatherCatV1.10B1784,2013-03-20 18:21:00,
2013-03-20 13:26:00,22.7,9.0,30.37,NW,309,3.0,9.0,55,0.00,,,0.00,WeatherCatV1.10B1784,2013-03-20 18:26:00,
2013-03-20 13:31:00,22.7,8.2,30.36,WSW,257,1.0,10.0,53,0.00,,,0.00,WeatherCatV1.10B1784,2013-03-20 18:31:00,
2013-03-20 13:36:00,22.7,7.8,30.36,West,278,3.0,12.0,52,0.00,,,0.00,WeatherCatV1.10B1784,2013-03-20 18:36:00,
2013-03-20 13:41:00,22.7,9.0,30.36,WNW,282,5.0,7.0,55,0.00,,,0.00,WeatherCatV1.10B1784,2013-03-20 18:41:00,
2013-03-20 13:46:00,22.8,7.8,30.35,North,10,3.0,11.0,52,0.00,,,0.00,WeatherCatV1.10B1784,2013-03-20 18:46:00,
2013-03-20 13:51:00,22.8,8.7,30.35,NW,306,5.0,8.0,54,0.00,,,0.00,WeatherCatV1.10B1784,2013-03-20 18:51:00,
2013-03-20 13:56:00,23.0,8.4,30.35,NW,314,3.0,8.0,53,0.00,,,0.00,WeatherCatV1.10B1784,2013-03-20 18:56:00,
2013-03-20 14:01:00,22.9,8.4,30.35,West,278,4.0,7.0,53,0.00,,,0.00,WeatherCatV1.10B1784,2013-03-20 19:01:00,
2013-03-20 14:06:00,23.3,9.6,30.34,NNW,334,7.0,7.0,55,0.00,,,0.00,WeatherCatV1.10B1784,2013-03-20 19:06:00,
2013-03-20 14:11:00,23.5,9.7,30.34,North,10,4.0,8.0,55,0.00,,,0.00,WeatherCatV1.10B1784,2013-03-20 19:11:00,
2013-03-20 14:16:00,23.6,9.0,30.34,WNW,290,1.0,6.0,53,0.00,,,0.00,WeatherCatV1.10B1784,2013-03-20 19:16:00,
2013-03-20 14:21:00,23.5,8.9,30.34,NW,311,4.0,8.0,53,0.00,,,0.00,WeatherCatV1.10B1784,2013-03-20 19:21:00,
2013-03-20 14:26:00,23.7,9.9,30.33,West,262,4.0,10.0,55,0.00,,,0.00,WeatherCatV1.10B1784,2013-03-20 19:26:00,
2013-03-20 14:31:00,24.0,9.8,30.33,NW,310,6.0,6.0,54,0.00,,,0.00,WeatherCatV1.10B1784,2013-03-20 19:31:00,
2013-03-20 14:36:00,24.0,8.5,30.33,WNW,303,8.0,9.0,51,0.00,,,0.00,WeatherCatV1.10B1784,2013-03-20 19:36:00,
2013-03-20 14:41:00,23.8,8.3,30.33,WNW,296,4.0,10.0,51,0.00,,,0.00,WeatherCatV1.10B1784,2013-03-20 19:41:00,
2013-03-20 14:46:00,23.8,9.6,30.32,NW,305,7.0,10.0,54,0.00,,,0.00,WeatherCatV1.10B1784,2013-03-20 19:46:00,
2013-03-20 14:51:00,23.8,9.2,30.31,West,276,6.0,7.0,53,0.00,,,0.00,WeatherCatV1.10B1784,2013-03-20 19:51:00,
2013-03-20 14:56:00,24.4,9.8,30.31,WNW,301,8.0,8.0,53,0.00,,,0.00,WeatherCatV1.10B1784,2013-03-20 19:56:00,
2013-03-20 15:01:00,24.6,9.9,30.31,WNW,282,8.0,9.0,53,0.00,,,0.00,WeatherCatV1.10B1784,2013-03-20 20:01:00,
2013-03-20 15:06:00,24.7,10.0,30.31,WNW,293,2.0,4.0,53,0.00,,,0.00,WeatherCatV1.10B1784,2013-03-20 20:06:00,
2013-03-20 15:11:00,25.0,9.9,30.30,WNW,290,4.0,4.0,52,0.00,,,0.00,WeatherCatV1.10B1784,2013-03-20 20:11:00,
2013-03-20 15:16:00,25.0,9.0,30.30,NW,318,5.0,6.0,50,0.00,,,0.00,WeatherCatV1.10B1784,2013-03-20 20:16:00,
2013-03-20 15:21:00,25.2,9.6,30.30,West,275,3.0,7.0,51,0.00,,,0.00,WeatherCatV1.10B1784,2013-03-20 20:21:00,
2013-03-20 15:26:00,25.3,9.3,30.30,NW,320,4.0,6.0,50,0.00,,,0.00,WeatherCatV1.10B1784,2013-03-20 20:26:00,
2013-03-20 15:31:00,24.9,8.0,30.30,NW,316,4.0,10.0,48,0.00,,,0.00,WeatherCatV1.10B1784,2013-03-20 20:31:00,
2013-03-20 15:36:00,25.2,9.2,30.30,North,353,7.0,8.0,50,0.00,,,0.00,WeatherCatV1.10B1784,2013-03-20 20:36:00,
2013-03-20 15:41:00,25.5,8.6,30.30,NW,316,3.0,8.0,48,0.00,,,0.00,WeatherCatV1.10B1784,2013-03-20 20:41:00,
2013-03-20 15:46:00,25.4,8.9,30.29,WNW,301,4.0,7.0,49,0.00,,,0.00,WeatherCatV1.10B1784,2013-03-20 20:46:00,
2013-03-20 15:51:00,25.4,8.5,30.29,WNW,289,2.0,10.0,48,0.00,,,0.00,WeatherCatV1.10B1784,2013-03-20 20:51:00,
2013-03-20 15:56:00,25.5,8.6,30.29,NNW,346,7.0,8.0,48,0.00,,,0.00,WeatherCatV1.10B1784,2013-03-20 20:56:00,
2013-03-20 16:02:00,25.7,9.2,30.29,NW,305,2.0,10.0,49,0.00,,,0.00,WeatherCatV1.10B1784,2013-03-20 21:02:00,
2013-03-20 16:07:00,26.0,10.4,30.29,NW,320,3.0,8.0,51,0.00,,,0.00,WeatherCatV1.10B1784,2013-03-20 21:07:00,
2013-03-20 16:12:00,25.8,9.8,30.29,West,266,3.0,6.0,50,0.00,,,0.00,WeatherCatV1.10B1784,2013-03-20 21:12:00,
2013-03-20 16:17:00,25.7,9.7,30.29,NNW,334,5.0,7.0,50,0.00,,,0.00,WeatherCatV1.10B1784,2013-03-20 21:17:00,
2013-03-20 16:22:00,25.8,10.2,30.28,NW,308,4.0,4.0,51,0.00,,,0.00,WeatherCatV1.10B1784,2013-03-20 21:22:00,
2013-03-20 16:27:00,26.0,9.9,30.28,West,264,4.0,6.0,50,0.00,,,0.00,WeatherCatV1.10B1784,2013-03-20 21:27:00,
2013-03-20 16:32:00,25.5,8.6,30.28,West,274,3.0,11.0,48,0.00,,,0.00,WeatherCatV1.10B1784,2013-03-20 21:32:00,
2013-03-20 16:37:00,25.9,9.4,30.28,NW,310,2.0,8.0,49,0.00,,,0.00,WeatherCatV1.10B1784,2013-03-20 21:37:00,
2013-03-20 16:42:00,26.2,9.2,30.28,WNW,284,3.0,9.0,48,0.00,,,0.00,WeatherCatV1.10B1784,2013-03-20 21:42:00,
2013-03-20 16:47:00,26.4,9.4,30.28,NW,304,5.0,7.0,48,0.00,,,0.00,WeatherCatV1.10B1784,2013-03-20 21:47:00,
2013-03-20 16:52:00,26.2,8.3,30.28,NNW,328,3.0,7.0,46,0.00,,,0.00,WeatherCatV1.10B1784,2013-03-20 21:52:00,
2013-03-20 16:57:00,26.4,9.4,30.28,North,10,3.0,9.0,48,0.00,,,0.00,WeatherCatV1.10B1784,2013-03-20 21:57:00,
2013-03-20 17:02:00,26.3,9.8,30.27,North,0,3.0,6.0,49,0.00,,,0.00,WeatherCatV1.10B1784,2013-03-20 22:02:00,
2013-03-20 17:07:00,26.2,8.3,30.27,NW,311,5.0,5.0,46,0.00,,,0.00,WeatherCatV1.10B1784,2013-03-20 22:07:00,
2013-03-20 17:12:00,26.1,9.1,30.27,West,280,4.0,9.0,48,0.00,,,0.00,WeatherCatV1.10B1784,2013-03-20 22:12:00,
2013-03-20 17:17:00,26.0,9.0,30.26,WNW,295,3.0,6.0,48,0.00,,,0.00,WeatherCatV1.10B1784,2013-03-20 22:17:00,
2013-03-20 17:22:00,26.2,9.7,30.26,NNW,332,4.0,6.0,49,0.00,,,0.00,WeatherCatV1.10B1784,2013-03-20 22:22:00,
2013-03-20 17:27:00,26.0,8.6,30.26,West,274,4.0,8.0,47,0.00,,,0.00,WeatherCatV1.10B1784,2013-03-20 22:27:00,
2013-03-20 17:32:00,25.7,8.8,30.26,NW,309,2.0,4.0,48,0.00,,,0.00,WeatherCatV1.10B1784,2013-03-20 22:32:00,
2013-03-20 17:37:00,25.8,8.4,30.26,NW,305,5.0,7.0,47,0.00,,,0.00,WeatherCatV1.10B1784,2013-03-20 22:37:00,
2013-03-20 17:42:00,25.6,9.1,30.26,WNW,300,4.0,5.0,49,0.00,,,0.00,WeatherCatV1.10B1784,2013-03-20 22:42:00,
2013-03-20 17:47:00,25.8,9.3,30.25,WNW,292,5.0,8.0,49,0.00,,,0.00,WeatherCatV1.10B1784,2013-03-20 22:47:00,
2013-03-20 17:52:00,25.7,9.2,30.25,NW,326,2.0,4.0,49,0.00,,,0.00,WeatherCatV1.10B1784,2013-03-20 22:52:00,
2013-03-20 17:57:00,25.5,9.0,30.25,NW,306,2.0,9.0,49,0.00,,,0.00,WeatherCatV1.10B1784,2013-03-20 22:57:00,
2013-03-20 18:02:00,25.3,9.3,30.25,NW,325,3.0,5.0,50,0.00,,,0.00,WeatherCatV1.10B1784,2013-03-20 23:02:00,
2013-03-20 18:07:00,24.9,8.9,30.25,WNW,286,5.0,5.0,50,0.00,,,0.00,WeatherCatV1.10B1784,2013-03-20 23:07:00,
2013-03-20 18:12:00,24.7,9.2,30.25,WNW,301,3.0,6.0,51,0.00,,,0.00,WeatherCatV1.10B1784,2013-03-20 23:12:00,
2013-03-20 18:17:00,24.5,9.0,30.24,WNW,289,5.0,7.0,51,0.00,,,0.00,WeatherCatV1.10B1784,2013-03-20 23:17:00,
2013-03-20 18:22:00,24.5,8.6,30.24,North,351,2.0,5.0,50,0.00,,,0.00,WeatherCatV1.10B1784,2013-03-20 23:22:00,
2013-03-20 18:27:00,24.5,8.6,30.24,NW,305,0.0,3.0,50,0.00,,,0.00,WeatherCatV1.10B1784,2013-03-20 23:27:00,
2013-03-20 18:32:00,24.4,8.9,30.24,North,355,1.0,5.0,51,0.00,,,0.00,WeatherCatV1.10B1784,2013-03-20 23:32:00,
2013-03-20 18:37:00,24.3,8.8,30.24,NNW,338,2.0,4.0,51,0.00,,,0.00,WeatherCatV1.10B1784,2013-03-20 23:37:00,
2013-03-20 18:42:00,24.0,8.1,30.24,NNW,334,2.0,5.0,50,0.00,,,0.00,WeatherCatV1.10B1784,2013-03-20 23:42:00,
2013-03-20 18:47:00,23.9,10.1,30.24,North,354,5.0,7.0,55,0.00,,,0.00,WeatherCatV1.10B1784,2013-03-20 23:47:00,
2013-03-20 18:52:00,23.9,11.3,30.24,North,350,0.0,7.0,58,0.00,,,0.00,WeatherCatV1.10B1784,2013-03-20 23:52:00,
2013-03-20 18:57:00,23.8,11.2,30.24,North,356,5.0,5.0,58,0.00,,,0.00,WeatherCatV1.10B1784,2013-03-20 23:57:00,
2013-03-20 19:02:00,23.5,10.5,30.24,NNW,331,2.0,6.0,57,0.00,,,0.00,WeatherCatV1.10B1784,2013-03-21 00:02:00,
2013-03-20 19:07:00,23.2,10.3,30.24,NNW,342,2.0,3.0,57,0.00,,,0.00,WeatherCatV1.10B1784,2013-03-21 00:07:00,
2013-03-20 19:12:00,23.0,10.1,30.24,North,5,3.0,6.0,57,0.00,,,0.00,WeatherCatV1.10B1784,2013-03-21 00:12:00,
2013-03-20 19:17:00,22.5,10.0,30.24,NW,305,3.0,3.0,58,0.00,,,0.00,WeatherCatV1.10B1784,2013-03-21 00:17:00,
2013-03-20 19:22:00,22.2,10.8,30.24,North,350,2.0,3.0,61,0.00,,,0.00,WeatherCatV1.10B1784,2013-03-21 00:22:00,
2013-03-20 19:27:00,22.0,11.0,30.24,NW,309,1.0,5.0,62,0.00,,,0.00,WeatherCatV1.10B1784,2013-03-21 00:27:00,
2013-03-20 19:32:00,21.7,11.1,30.24,North,351,0.0,1.0,63,0.00,,,0.00,WeatherCatV1.10B1784,2013-03-21 00:32:00,
2013-03-20 19:37:00,21.4,11.1,30.24,NNW,344,2.0,2.0,64,0.00,,,0.00,WeatherCatV1.10B1784,2013-03-21 00:37:00,
2013-03-20 19:42:00,21.1,10.9,30.24,NNW,335,0.0,1.0,64,0.00,,,0.00,WeatherCatV1.10B1784,2013-03-21 00:42:00,
2013-03-20 19:47:00,20.8,10.9,30.23,NW,326,0.0,1.0,65,0.00,,,0.00,WeatherCatV1.10B1784,2013-03-21 00:47:00,
2013-03-20 19:52:00,20.6,10.7,30.23,NNW,332,1.0,1.0,65,0.00,,,0.00,WeatherCatV1.10B1784,2013-03-21 00:52:00,
2013-03-20 19:57:00,20.4,10.5,30.24,NNW,338,0.0,3.0,65,0.00,,,0.00,WeatherCatV1.10B1784,2013-03-21 00:57:00,
2013-03-20 20:02:00,20.2,10.3,30.23,NNW,340,1.0,2.0,65,0.00,,,0.00,WeatherCatV1.10B1784,2013-03-21 01:02:00,
2013-03-20 20:07:00,20.0,10.2,30.23,ENE,74,0.0,1.0,65,0.00,,,0.00,WeatherCatV1.10B1784,2013-03-21 01:07:00,
2013-03-20 20:12:00,19.8,10.0,30.23,ENE,74,0.0,1.0,65,0.00,,,0.00,WeatherCatV1.10B1784,2013-03-21 01:12:00,
2013-03-20 20:17:00,19.5,9.7,30.23,ENE,58,2.0,3.0,65,0.00,,,0.00,WeatherCatV1.10B1784,2013-03-21 01:17:00,
2013-03-20 20:22:00,19.3,9.5,30.23,NNW,343,0.0,1.0,65,0.00,,,0.00,WeatherCatV1.10B1784,2013-03-21 01:22:00,
2013-03-20 20:27:00,19.1,9.6,30.23,North,351,0.0,4.0,66,0.00,,,0.00,WeatherCatV1.10B1784,2013-03-21 01:27:00,
2013-03-20 20:32:00,18.9,9.4,30.23,ENE,60,0.0,1.0,66,0.00,,,0.00,WeatherCatV1.10B1784,2013-03-21 01:32:00,
2013-03-20 20:37:00,18.7,9.6,30.23,NE,52,0.0,1.0,67,0.00,,,0.00,WeatherCatV1.10B1784,2013-03-21 01:37:00,
2013-03-20 20:42:00,18.5,9.4,30.23,NW,326,0.0,1.0,67,0.00,,,0.00,WeatherCatV1.10B1784,2013-03-21 01:42:00,
2013-03-20 20:47:00,18.3,9.2,30.24,NW,326,0.0,3.0,67,0.00,,,0.00,WeatherCatV1.10B1784,2013-03-21 01:47:00,
2013-03-20 20:52:00,18.1,9.3,30.24,NW,326,0.0,1.0,68,0.00,,,0.00,WeatherCatV1.10B1784,2013-03-21 01:52:00,
2013-03-20 20:57:00,17.9,8.8,30.24,NE,50,3.0,4.0,67,0.00,,,0.00,WeatherCatV1.10B1784,2013-03-21 01:57:00,
2013-03-20 21:02:00,17.8,8.7,30.24,NE,50,0.0,1.0,67,0.00,,,0.00,WeatherCatV1.10B1784,2013-03-21 02:02:00,
2013-03-20 21:07:00,17.6,8.9,30.24,NNE,33,0.0,3.0,68,0.00,,,0.00,WeatherCatV1.10B1784,2013-03-21 02:07:00,
2013-03-20 21:12:00,17.5,8.8,30.24,NNE,32,0.0,2.0,68,0.00,,,0.00,WeatherCatV1.10B1784,2013-03-21 02:12:00,
2013-03-20 21:17:00,17.3,8.9,30.24,NNE,32,0.0,1.0,69,0.00,,,0.00,WeatherCatV1.10B1784,2013-03-21 02:17:00,
2013-03-20 21:22:00,17.1,9.0,30.24,NNE,31,0.0,0.0,70,0.00,,,0.00,WeatherCatV1.10B1784,2013-03-21 02:22:00,
2013-03-20 21:27:00,17.0,8.9,30.23,NNE,31,0.0,1.0,70,0.00,,,0.00,WeatherCatV1.10B1784,2013-03-21 02:27:00,
2013-03-20 21:32:00,16.8,9.1,30.23,NNE,31,0.0,0.0,71,0.00,,,0.00,WeatherCatV1.10B1784,2013-03-21 02:32:00,
2013-03-20 21:37:00,16.7,9.0,30.23,NNE,31,0.0,0.0,71,0.00,,,0.00,WeatherCatV1.10B1784,2013-03-21 02:37:00,
2013-03-20 21:42:00,16.5,8.8,30.23,NNE,31,0.0,0.0,71,0.00,,,0.00,WeatherCatV1.10B1784,2013-03-21 02:42:00,
2013-03-20 21:47:00,16.4,9.0,30.23,NNE,20,0.0,3.0,72,0.00,,,0.00,WeatherCatV1.10B1784,2013-03-21 02:47:00,
2013-03-20 21:52:00,16.3,8.9,30.23,NNE,23,0.0,0.0,72,0.00,,,0.00,WeatherCatV1.10B1784,2013-03-21 02:52:00,
2013-03-20 21:57:00,16.2,8.8,30.22,NNE,24,0.0,1.0,72,0.00,,,0.00,WeatherCatV1.10B1784,2013-03-21 02:57:00,
2013-03-20 22:02:00,16.1,8.7,30.22,NNW,348,1.0,4.0,72,0.00,,,0.00,WeatherCatV1.10B1784,2013-03-21 03:02:00,
2013-03-20 22:07:00,16.1,8.7,30.22,North,355,0.0,1.0,72,0.00,,,0.00,WeatherCatV1.10B1784,2013-03-21 03:07:00,
2013-03-20 22:12:00,16.0,8.6,30.21,North,0,0.0,3.0,72,0.00,,,0.00,WeatherCatV1.10B1784,2013-03-21 03:12:00,
2013-03-20 22:17:00,16.0,8.9,30.21,NNW,334,0.0,3.0,73,0.00,,,0.00,WeatherCatV1.10B1784,2013-03-21 03:17:00,
2013-03-20 22:22:00,15.9,8.8,30.21,NE,39,1.0,1.0,73,0.00,,,0.00,WeatherCatV1.10B1784,2013-03-21 03:22:00,
2013-03-20 22:27:00,15.8,9.0,30.21,NE,41,0.0,1.0,74,0.00,,,0.00,WeatherCatV1.10B1784,2013-03-21 03:27:00,
2013-03-20 22:32:00,15.8,8.7,30.21,NE,41,0.0,1.0,73,0.00,,,0.00,WeatherCatV1.10B1784,2013-03-21 03:32:00,
2013-03-20 22:37:00,15.7,8.9,30.21,NNE,24,0.0,3.0,74,0.00,,,0.00,WeatherCatV1.10B1784,2013-03-21 03:37:00,
2013-03-20 22:42:00,15.6,8.8,30.20,NE,43,2.0,2.0,74,0.00,,,0.00,WeatherCatV1.10B1784,2013-03-21 03:42:00,
2013-03-20 22:47:00,15.5,8.7,30.20,NNE,30,0.0,2.0,74,0.00,,,0.00,WeatherCatV1.10B1784,2013-03-21 03:47:00,
2013-03-20 22:52:00,15.5,8.7,30.20,North,0,0.0,5.0,74,0.00,,,0.00,WeatherCatV1.10B1784,2013-03-21 03:52:00,
2013-03-20 22:57:00,15.4,8.6,30.19,ENE,66,1.0,3.0,74,0.00,,,0.00,WeatherCatV1.10B1784,2013-03-21 03:57:00,
2013-03-20 23:00:00,15.3,8.5,30.19,ENE,60,0.0,3.0,74,0.00,,,0.00,WeatherCatV1.10B1784,2013-03-21 04:00:00,
2013-03-20 23:05:00,15.2,8.4,30.19,North,10,0.0,4.0,74,0.00,,,0.00,WeatherCatV1.10B1784,2013-03-21 04:05:00,
2013-03-20 23:06:00,15.2,8.4,30.19,East,81,3.0,4.0,74,0.00,,,0.00,WeatherCatV1.10B1784,2013-03-21 04:06:00,
2013-03-20 23:11:00,15.1,8.0,30.20,ENE,67,0.0,2.0,73,0.00,,,0.00,WeatherCatV1.10B1784,2013-03-21 04:11:00,
2013-03-20 23:16:00,15.0,7.9,30.19,East,79,3.0,3.0,73,0.00,,,0.00,WeatherCatV1.10B1784,2013-03-21 04:16:00,
2013-03-20 23:21:00,14.8,7.7,30.19,NNW,338,1.0,4.0,73,0.00,,,0.00,WeatherCatV1.10B1784,2013-03-21 04:21:00,
2013-03-20 23:26:00,14.8,7.7,30.19,NE,56,1.0,4.0,73,0.00,,,0.00,WeatherCatV1.10B1784,2013-03-21 04:26:00,
2013-03-20 23:31:00,14.8,7.7,30.20,ENE,77,0.0,1.0,73,0.00,,,0.00,WeatherCatV1.10B1784,2013-03-21 04:31:00,
2013-03-20 23:36:00,14.7,7.6,30.19,ENE,77,0.0,0.0,73,0.00,,,0.00,WeatherCatV1.10B1784,2013-03-21 04:36:00,
2013-03-20 23:41:00,14.6,7.8,30.19,ENE,78,0.0,3.0,74,0.00,,,0.00,WeatherCatV1.10B1784,2013-03-21 04:41:00,
2013-03-20 23:46:00,14.5,7.8,30.19,ENE,74,3.0,6.0,74,0.00,,,0.00,WeatherCatV1.10B1784,2013-03-21 04:46:00,
2013-03-20 23:51:00,14.4,7.7,30.19,ENE,64,0.0,3.0,74,0.00,,,0.00,WeatherCatV1.10B1784,2013-03-21 04:51:00,
2013-03-20 23:56:00,14.4,7.7,30.19,East,82,2.0,3.0,74,0.00,,,0.00,WeatherCatV1.10B1784,2013-03-21 04:56:00,